Location: Taaricht
(32.5378°N, 5.4251°W)
Time: 13:51:44
(UTC+00:00)

IRS-1A Rocket - Pass Details

Date: 09 April 2020
Orbit: 851 x 931 km, 99.2° (Epoch: 04 June)

Event Time Altitude Azimuth Distance (km) Brightness Sun altitude
Exits shadow 19:42:22 - 157° (SSE) 3,298 6.9 -12.0°
Reaches altitude 10° 19:44:19 10° 154° (SSE) 2,543 6.3 -12.4°
Maximum altitude 19:49:56 66° 73° (ENE) 982 4.3 -13.5°
Drops below altitude 10° 19:55:41 10° 353° (N) 2,608 7.1 -14.7°
Sets 19:58:08 0° 351° (N) 3,563 7.9 -15.2°
